Torna al catalogo

YAOGAN-33 02

AttivoMilitareSSO
NORAD 53698·PAYLOAD·🇨🇳 China

Lanciato Sep 2, 2022 da Jiuquan Satellite Launch Center

Loading…

Prossimi Passaggi (prossime 24 ore)

TLE

AggiornatoSource: Space-Track

Epoca: Sep 14, 2026, 15:23 UTC

1 53698U 22106A   26257.64105663  .00000082  00000-0  27392-4 0  9992
2 53698  98.1846 264.1770 0000937 195.4860 164.6311 14.58751048214763

Traccia YAOGAN-33 02 in tempo reale con AllMySat

Download on the App Store